Dillon, MT

1:20 PM MST on February 17, 2018 (GMT -0700)
Dillon

Weather History for KDLN - July, 2013

Change the Weather History Date:

Saturday, July 6, 2013

  Actual Average Record
Temperature  
Mean Temperature 67 °F 64 °F  
Max Temperature 84 °F 80 °F 97 °F (2007)
Min Temperature 50 °F 48 °F 33 °F (1986)
Degree Days  
Heating Degree Days 0    
Month to date heating degree days 0  
Since 1 June heating degree days 188  
Since 1 July heating degree days 0  
Cooling Degree Days 2    
Month to date cooling degree days 44  
Year to date cooling degree days 69  
Since 1 June cooling degree days 66  
Growing Degree Days 16 (Base 50)    
Moisture  
Dew Point 48 °F    
Average Humidity 56    
Maximum Humidity 89    
Minimum Humidity 22    
Precipitation  
Precipitation 0.09 in 0.03 in 0.54 in (1969)
Month to date precipitation 0.26 0.23  
Year to date precipitation 4.84 6.27  
Snow  
Snow 0.00 in - - ()
Snow Depth 0.00 in    
Sea Level Pressure  
Sea Level Pressure 29.82 in    
Wind  
Wind Speed 5 mph (South)    
Max Wind Speed 28 mph    
Max Gust Speed 36 mph    
Visibility 10 miles    
Events Rain , Thunderstorm    
T = Trace of Precipitation, MM = Missing Value Source: NWS Daily Summary

Daily Weather History Graph

Daily Weather History Graph

Search for Another Location

Airport or City:

Trip Planner

Search our weather history database for the weather conditions in past years. The results will help you decide how hot, cold, wet, or windy it might be!

Date:

Astronomy

Jul. 06, 2013 Rise Set
Actual Time 5:49 AM MDT 9:19 PM MDT
Civil Twilight 5:12 AM MDT 9:56 PM MDT
Nautical Twilight 4:23 AM MDT 10:45 PM MDT
Astronomical Twilight 3:20 AM MDT 11:48 PM MDT
Moon 4:41 AM MDT (7/6) 8:01 PM MDT (7/6)
Length of Visible Light 16h 44m
Length of Day
15h 30m
Waning Crescent, 2% of the Moon is Illuminated
Jul 6
Waning Crescent
Jul 8
New
Jul 15
First Quarter
Jul 22
Full
Jul 29
Last Quarter

Hourly Weather History & Observations

Time (MDT) Temp. Dew Point Humidity Pressure Visibility Wind Dir Wind Speed Gust Speed Precip Events Conditions
12:53 AM 57.0 °F 52.0 °F 83% 29.79 in 10.0 mi SSW 5.8 mph - N/A   Scattered Clouds
1:53 AM 54.0 °F 50.0 °F 86% 29.79 in 10.0 mi WSW 4.6 mph - N/A   Clear
2:53 AM 54.0 °F 50.0 °F 86% 29.79 in 10.0 mi SSW 3.5 mph - N/A   Clear
3:53 AM 55.9 °F 48.9 °F 77% 29.80 in 10.0 mi South 8.1 mph - N/A   Clear
4:53 AM 53.1 °F 48.9 °F 86% 29.82 in 10.0 mi SW 3.5 mph - N/A   Clear
5:53 AM 51.1 °F 46.9 °F 86% 29.84 in 10.0 mi SSW 3.5 mph - N/A   Clear
6:53 AM 52.0 °F 48.0 °F 86% 29.88 in 10.0 mi SSW 8.1 mph - N/A   Clear
7:53 AM 55.9 °F 51.1 °F 84% 29.88 in 10.0 mi SSW 4.6 mph - N/A   Clear
8:53 AM 60.1 °F 50.0 °F 69% 29.88 in 10.0 mi SW 3.5 mph - N/A   Clear
9:53 AM 63.0 °F 50.0 °F 63% 29.88 in 10.0 mi Calm Calm - N/A   Clear
10:53 AM 69.1 °F 48.9 °F 49% 29.86 in 10.0 mi Calm Calm - N/A   Clear
11:53 AM 73.0 °F 48.0 °F 41% 29.84 in 10.0 mi Calm Calm - N/A   Clear
12:53 PM 75.0 °F 44.1 °F 33% 29.82 in 10.0 mi NW 3.5 mph - N/A   Clear
1:53 PM 79.0 °F 39.9 °F 25% 29.78 in 10.0 mi Variable 3.5 mph - N/A   Clear
2:53 PM 82.9 °F 39.9 °F 22% 29.74 in 10.0 mi NE 8.1 mph - N/A   Partly Cloudy
3:53 PM 81.0 °F 42.1 °F 25% 29.72 in 10.0 mi NE 9.2 mph - N/A   Scattered Clouds
4:15 PM 77.0 °F 44.6 °F 32% 29.90 in 7.0 mi South 25.3 mph 34.5 mph N/A Thunderstorm Mostly Cloudy
4:28 PM 69.8 °F 48.2 °F 46% 29.91 in 9.0 mi South 20.7 mph 35.7 mph 0.01 in Rain , Thunderstorm Light Rain
4:36 PM 64.4 °F 53.6 °F 68% 29.91 in 2.5 mi SE 16.1 mph 35.7 mph 0.09 in Rain Heavy Rain
4:45 PM 66.2 °F 55.4 °F 68% 29.91 in 8.0 mi SSE 16.1 mph - 0.09 in Rain Light Rain
4:53 PM 69.1 °F 57.0 °F 65% 29.77 in 10.0 mi SSE 16.1 mph - 0.09 in   Mostly Cloudy
5:53 PM 75.9 °F 46.9 °F 36% 29.73 in 10.0 mi SSE 9.2 mph - N/A   Clear
6:53 PM 79.0 °F 44.1 °F 29% 29.72 in 10.0 mi Variable 5.8 mph - N/A   Clear
7:53 PM 73.9 °F 46.0 °F 37% 29.73 in 10.0 mi ESE 10.4 mph - N/A   Clear
8:53 PM 70.0 °F 46.9 °F 44% 29.75 in 10.0 mi Calm Calm - N/A   Clear
9:53 PM 66.9 °F 46.9 °F 49% 29.78 in 10.0 mi Calm Calm - N/A   Scattered Clouds
10:53 PM 61.0 °F 48.9 °F 64% 29.80 in 10.0 mi West 6.9 mph - N/A   Partly Cloudy
11:53 PM 64.0 °F 46.9 °F 54% 29.80 in 10.0 mi ESE 8.1 mph - N/A   Scattered Clouds